Find Starlink 1964

NORAD ID: 47565 Int'l Des: 2021-009 Owner: SPXS Country: US Constellation: starlink decayed
LEOCIRCULAR

Re-entered — 29. Juni 2026

3D-Globus wird geladen...

About Starlink 1964

Starlink 1964 (NORAD 47565) is a starlink constellation satellite (v1.0) launched Feb 4, 2021 by SPXS of US. It re-entered the atmosphere on Jun 29, 2026. with a mass of 260.00 kg.

Über Starlink 1964

Beschreibung wird geladen...

Höhenverlauf

Loading altitude history...

Zweizeiliger Elementsatz

1 47565U 21009T 26180.07932919 .10503916 12450-4 31722-3 0 9995
2 47565 53.0202 126.8886 0006751 247.7836 112.2496 16.44696649299185
Epoch: 29. Juni 2026 • Age: 423 hours

Aktueller Status

Position data unavailable
Startdatum 4. Feb. 2021
Alter 5.4 years
Verglühungsdatum 29. Juni 2026
Typ internet

Technische Details

Klassifizierung Payload
Masse 260.00 kg
Trockenmasse 248.00 kg
Gesamtmasse 260.00 kg
Länge 0.20 m
Durchmesser 2.80 m
Spannweite 9.00 m
Form Box + pan
Hersteller SPXS
Bus-Typ Starlink
Phasenstatus Unknown Transfer Status
Besitzer/Staat SPXS/US

Most Searched